FW8649 Weather Reports


Display with metric or nautical units.
time (UTC)temp
F
wind
direction
speed
MPH
gust
MPH
rain 1hr
in
rain 24hr
in
rain mn
in
humidity
%
barometer
mb
20260504081544 48 190 0.0 0.0 0.00 0.00 0.00 84 1015.6
20260504050106 49 190 2.0 5.0 0.00 0.00 0.00 84 1016.9
20260504044522 49 211 0.0 0.0 0.00 0.00 0.00 83 1017.0
20260504043055 50 211 0.0 0.0 0.00 0.00 0.00 83 1017.2
20260504041505 50 211 0.0 0.0 0.00 0.00 0.00 81 1017.4
20260504040025 51 211 0.0 0.0 0.00 0.00 0.00 80 1017.4
20260504034539 51 211 0.0 0.0 0.00 0.00 0.00 79 1017.4
20260504033103 51 211 0.0 0.0 0.00 0.00 0.00 79 1017.4
20260504031531 51 211 0.0 0.0 0.00 0.00 0.00 78 1017.4
20260504030039 51 211 0.0 0.0 0.00 0.00 0.00 78 1017.4
20260504024600 52 211 0.0 0.0 0.00 0.00 0.00 75 1017.3
20260504023034 53 211 0.0 0.0 0.00 0.00 0.00 74 1017.6
20260504021555 54 211 0.0 0.0 0.00 0.00 0.00 72 1017.6
20260504020132 55 211 0.0 0.0 0.00 0.00 0.00 69 1017.5
20260504014536 57 211 0.0 0.0 0.00 0.00 0.00 66 1017.1
20260504013055 58 211 0.0 0.0 0.00 0.00 0.00 63 1017.1
20260504011502 60 211 0.0 0.0 0.00 0.00 0.00 61 1017.0
20260504010020 61 211 0.0 3.0 0.00 0.00 0.00 56 1016.8
20260504004608 63 211 0.0 0.0 0.00 0.00 0.00 54 1016.6
20260504003102 64 211 0.0 2.0 0.00 0.00 0.00 51 1016.5
20260504001529 65 212 1.0 3.0 0.00 0.00 0.00 48 1016.7
20260504000039 66 213 1.0 4.0 0.00 0.00 0.00 46 1016.8
20260503234604 66 250 3.0 5.0 0.00 0.00 0.00 44 1016.8
20260503233028 67 223 3.0 6.0 0.00 0.00 0.00 44 1017.1
20260503231551 67 302 2.0 6.0 0.00 0.00 0.00 42 1017.3
20260503230007 68 252 2.0 6.0 0.00 0.00 0.00 43 1017.4
20260503224536 68 227 3.0 8.0 0.00 0.00 0.00 40 1017.6
20260503223059 69 308 4.0 8.0 0.00 0.00 0.00 40 1017.7
20260503221531 71 295 2.0 9.0 0.00 0.00 0.00 38 1017.6
20260503220046 71 196 3.0 7.0 0.00 0.00 0.00 38 1017.9
20260503214501 71 248 5.0 14.0 0.00 0.00 0.00 38 1018.0
20260503213027 71 213 3.0 8.0 0.00 0.00 0.00 40 1018.2
20260503211550 71 213 7.0 15.0 0.00 0.00 0.00 39 1018.3
20260503210101 71 285 3.0 13.0 0.00 0.00 0.00 38 1018.6
20260503204531 71 205 3.0 10.0 0.00 0.00 0.00 39 1018.7
20260503203113 71 251 7.0 15.0 0.00 0.00 0.00 40 1018.9
20260503201532 71 242 5.0 12.0 0.00 0.00 0.00 39 1019.2
20260503200033 71 230 5.0 11.0 0.00 0.00 0.00 40 1019.5
20260503194558 71 242 8.0 15.0 0.00 0.00 0.00 41 1019.9
20260503193025 69 144 3.0 9.0 0.00 0.00 0.00 40 1020.3
20260503191549 68 207 3.0 10.0 0.00 0.00 0.00 42 1020.5
20260503190105 68 229 4.0 10.0 0.00 0.00 0.00 43 1020.8
20260503184522 68 231 1.0 7.0 0.00 0.00 0.00 47 1020.9
20260503183044 68 265 4.0 11.0 0.00 0.00 0.00 44 1021.2
20260503181507 67 169 4.0 13.0 0.00 0.00 0.00 44 1021.2
20260503180032 67 162 4.0 12.0 0.00 0.00 0.00 45 1021.6
20260503174548 66 292 4.0 10.0 0.00 0.00 0.00 44 1021.8
20260503173007 66 162 4.0 10.0 0.00 0.00 0.00 46 1021.8
20260503171533 64 39 1.0 8.0 0.00 0.00 0.00 46 1022.1